Tracking 19576 objects as of 17-Feb-2019
HD Live streaming from Space Station
objects crossing your sky now

COSMOS 1823 DEB

Track COSMOS 1823 DEB now!
10-day predictions


NORAD ID: 39814
Int'l Code: 1987-020EN
Perigee: 1,483.0 km
Apogee: 1,521.0 km
Inclination: 73.6 °
Period: 115.9 minutes
Semi major axis: 7872 km
RCS: 0.0157 m2 (small)
Launch date: February 20, 1987
Source: Commonwealth of Independent States (former USSR) (CIS)
Launch site: PLESETSK MISSILE AND SPACE COMPLEX (PKMTR)

Note: This is SATELLITE DEBRIS
aabbcc
Your satellite tracking list
Your tracking list is empty




NASA's NSSDC Master Catalog

Two Line Element Set (TLE):
1 39814U 87020EN  19045.63454625  .00000033  00000-0  36527-3 0  9998
2 39814  73.6182  24.1535 0024091  78.9205 281.4548 12.42776592644585
Source of the keplerian elements: AFSPC